Douglas, WY

6:19 AM MDT on July 29, 2017 (GMT -0600)
Converse County

Weather History for KDGW - January, 2012

Change the Weather History Date:

Tuesday, January 3, 2012

  Actual Average Record
Temperature  
Mean Temperature 38 °F 24 °F  
Max Temperature 52 °F 39 °F 59 °F (2003)
Min Temperature 23 °F 11 °F -12 °F (2015)
Degree Days  
Heating Degree Days 27 40  
Month to date heating degree days 112 122  
Since 1 July heating degree days 3061 3211  
Cooling Degree Days 0 0  
Month to date cooling degree days 0 0  
Year to date cooling degree days 0 0  
Moisture  
Dew Point 22 °F    
Average Humidity 60    
Maximum Humidity 88    
Minimum Humidity 32    
Precipitation  
Precipitation 0.00 in 0.02 in 0.14 in (2015)
Month to date precipitation 0.00 0.04  
Year to date precipitation 0.00 0.04  
Sea Level Pressure  
Sea Level Pressure 30.22 in    
Wind  
Wind Speed 9 mph (NW)    
Max Wind Speed 26 mph    
Max Gust Speed 33 mph    
Visibility 10 miles    
Events      
T = Trace of Precipitation, MM = Missing Value Source: NWS Daily Summary

Daily Weather History Graph

Daily Weather History Graph

Search for Another Location

Airport or City:

Trip Planner

Search our weather history database for the weather conditions in past years. The results will help you decide how hot, cold, wet, or windy it might be!

Date:

Astronomy

Jan. 03, 2012 Rise Set
Actual Time 7:32 AM MST 4:39 PM MST
Civil Twilight 7:00 AM MST 5:11 PM MST
Nautical Twilight 6:24 AM MST 5:47 PM MST
Astronomical Twilight 5:50 AM MST 6:21 PM MST
Moon 12:30 PM MST (1/3) 2:23 AM MST (1/3)
Length of Visible Light 10h 11m
Length of Day
9h 07m
Waxing Gibbous, 73% of the Moon is Illuminated
Jan 3
Waxing Gibbous
Jan 9
Full
Jan 16
Last Quarter
Jan 23
New
Jan 30
First Quarter

Hourly Weather History & Observations

Time (MST) Temp. Windchill Dew Point Humidity Pressure Visibility Wind Dir Wind Speed Gust Speed Precip Events Conditions
12:53 AM 46.9 °F - 21.9 °F 37% 30.14 in 10.0 mi West 18.4 mph - N/A   Clear
1:53 AM 45.0 °F 41.2 °F 21.9 °F 40% 30.15 in 10.0 mi WNW 6.9 mph - N/A   Clear
3:53 AM 44.1 °F 39.0 °F 19.9 °F 38% 30.12 in 10.0 mi WNW 9.2 mph - N/A   Clear
4:53 AM 39.0 °F 35.7 °F 19.0 °F 45% 30.16 in 10.0 mi NW 4.6 mph - N/A   Clear
5:53 AM 37.0 °F 28.5 °F 19.0 °F 48% 30.17 in 10.0 mi West 13.8 mph - N/A   Clear
7:53 AM 35.1 °F 32.2 °F 19.0 °F 52% 30.18 in 10.0 mi East 3.5 mph - N/A   Clear
8:53 AM 39.9 °F 36.7 °F 19.9 °F 45% 30.19 in 10.0 mi North 4.6 mph - N/A   Clear
9:53 AM 43.0 °F - 21.9 °F 43% 30.16 in 10.0 mi Calm Calm - N/A   Clear
10:53 AM 48.9 °F - 21.9 °F 35% 30.13 in 10.0 mi West 6.9 mph - N/A   Clear
11:53 AM 48.0 °F - 23.0 °F 37% 30.11 in 10.0 mi WNW 20.7 mph 26.5 mph N/A   Clear
12:53 PM 52.0 °F - 23.0 °F 32% 30.07 in 10.0 mi WNW 26.5 mph 32.2 mph N/A   Clear
1:53 PM 50.0 °F - 25.0 °F 38% 30.11 in 10.0 mi North 17.3 mph 26.5 mph N/A   Clear
2:53 PM 48.9 °F - 25.0 °F 39% 30.15 in 10.0 mi NNW 13.8 mph - N/A   Clear
3:53 PM 44.1 °F 38.6 °F 24.1 °F 45% 30.21 in 10.0 mi NNE 10.4 mph - N/A   Clear
4:53 PM 37.0 °F 31.0 °F 24.1 °F 59% 30.28 in 10.0 mi North 8.1 mph - N/A   Clear
5:53 PM 35.1 °F 30.1 °F 24.1 °F 64% 30.33 in 10.0 mi WNW 5.8 mph - N/A   Clear
6:53 PM 30.0 °F - 23.0 °F 75% 30.36 in 10.0 mi Calm Calm - N/A   Clear
7:53 PM 30.0 °F - 21.9 °F 72% 30.39 in 10.0 mi Calm Calm - N/A   Clear
8:53 PM 28.0 °F 21.7 °F 21.9 °F 78% 30.39 in 10.0 mi North 5.8 mph - N/A   Clear
9:53 PM 26.1 °F 21.9 °F 21.9 °F 84% 30.39 in 10.0 mi North 3.5 mph - N/A   Clear
10:53 PM 24.1 °F 19.7 °F 21.0 °F 88% 30.36 in 10.0 mi South 3.5 mph - N/A   Clear
11:53 PM 24.1 °F - 19.9 °F 84% 30.36 in 10.0 mi Calm Calm - N/A   Clear